Вернуться в каталог

STARLINK-30882

АктивенСвязьVLEO
NORAD 58379·PAYLOAD·🇺🇸 United States

Запущен Nov 20, 2023 с Vandenberg Space Force Base

Loading…

Ближайшие Пролёты (ближайшие 24 часа)

TLE

СвежийSource: CelesTrak SupGP

Эпоха: Sep 14, 2026, 13:29 UTC

1 58379C 23178F   26257.56229167  .00003259  00000+0  96308-4 0  2578
2 58379  53.1577 199.7347 0001404  91.0819 345.0048 15.34377202    18

Отслеживайте STARLINK-30882 в реальном времени с AllMySat

Download on the App Store